ASL12P LYBE-LDPL

Flight info

Callsign ASL12P
Flight time 0h 49m
Altitude 34000
Route TUVAR DCT TEBLI DCT KULEN
Aircraft A319/M-SDE3FGHIRWY/LB1

Departure

Time 2026-04-26 17:10
Airport Belgrade Nikola Tesla Airport (LYBE)

Arrival

Time 2026-04-26 17:59
Airport Pula Airport (LDPL)
Time Latitude Longitude Altitude Speed Heading
2026-04-26 16:42 44.82091 20.29284 310 ft 0 kts 212°
2026-04-26 17:00 44.82099 20.29291 307 ft 3 kts 212°
2026-04-26 17:01 44.82120 20.29309 306 ft 3 kts 212°
2026-04-26 17:01 44.82135 20.29322 307 ft 3 kts 187°
2026-04-26 17:01 44.82152 20.29315 306 ft 3 kts 128°
2026-04-26 17:01 44.82165 20.29289 307 ft 3 kts 123°
2026-04-26 17:02 44.82167 20.29284 308 ft 0 kts 123°
2026-04-26 17:04 44.82162 20.29295 307 ft 3 kts 123°
2026-04-26 17:04 44.82146 20.29331 307 ft 6 kts 123°
2026-04-26 17:04 44.82119 20.29388 307 ft 8 kts 123°
2026-04-26 17:05 44.82085 20.29466 309 ft 10 kts 114°
2026-04-26 17:05 44.82113 20.29548 309 ft 10 kts 49°
2026-04-26 17:05 44.82092 20.29644 307 ft 12 kts 124°
2026-04-26 17:05 44.82044 20.29751 307 ft 14 kts 122°
2026-04-26 17:06 44.81991 20.29871 307 ft 15 kts 122°
2026-04-26 17:06 44.81930 20.30008 307 ft 18 kts 122°
2026-04-26 17:06 44.81859 20.30169 307 ft 22 kts 122°
2026-04-26 17:06 44.81772 20.30366 308 ft 25 kts 122°
2026-04-26 17:07 44.81677 20.30579 308 ft 27 kts 122°
2026-04-26 17:07 44.81575 20.30806 308 ft 28 kts 122°
2026-04-26 17:07 44.81467 20.31051 306 ft 30 kts 121°
2026-04-26 17:07 44.81357 20.31301 306 ft 31 kts 122°
2026-04-26 17:08 44.81251 20.31539 306 ft 28 kts 122°
2026-04-26 17:08 44.81144 20.31779 306 ft 30 kts 122°
2026-04-26 17:08 44.81033 20.32031 307 ft 25 kts 121°
2026-04-26 17:08 44.80991 20.32189 307 ft 14 kts 81°
2026-04-26 17:09 44.81067 20.32291 307 ft 16 kts 21°
2026-04-26 17:09 44.81146 20.32307 306 ft 18 kts 360°
2026-04-26 17:09 44.81291 20.32158 309 ft 29 kts 302°
2026-04-26 17:09 44.81501 20.31688 307 ft 85 kts 301°
2026-04-26 17:10 44.81913 20.30760 308 ft 137 kts 302°
2026-04-26 17:10 44.82458 20.29545 760 ft 147 kts 307°
2026-04-26 17:10 44.83000 20.28318 1433 ft 148 kts 305°
2026-04-26 17:10 44.83566 20.27038 1884 ft 164 kts 306°
2026-04-26 17:11 44.84214 20.25586 2225 ft 187 kts 306°
2026-04-26 17:11 44.84955 20.23925 2611 ft 213 kts 305°
2026-04-26 17:11 44.85786 20.22049 3144 ft 238 kts 304°
2026-04-26 17:11 44.86696 20.19956 3693 ft 264 kts 301°
2026-04-26 17:12 44.87694 20.14713 5461 ft 284 kts 283°
2026-04-26 17:12 44.87998 20.11962 6515 ft 285 kts 283°
2026-04-26 17:13 44.88607 20.06380 8341 ft 292 kts 282°
2026-04-26 17:13 44.88914 20.03567 9199 ft 297 kts 282°
2026-04-26 17:13 44.89547 19.97720 10821 ft 306 kts 281°
2026-04-26 17:14 44.89868 19.94733 11615 ft 310 kts 281°
2026-04-26 17:14 44.90518 19.88656 13192 ft 317 kts 282°
2026-04-26 17:14 44.90849 19.85568 13954 ft 321 kts 282°
2026-04-26 17:15 44.91521 19.79265 15261 ft 329 kts 282°
2026-04-26 17:15 44.91862 19.76049 15890 ft 334 kts 282°
2026-04-26 17:15 44.92207 19.72784 16521 ft 339 kts 282°
2026-04-26 17:16 44.92558 19.69470 17155 ft 343 kts 282°
2026-04-26 17:16 44.92910 19.66115 17786 ft 348 kts 281°
2026-04-26 17:16 44.93263 19.62715 18405 ft 353 kts 281°
2026-04-26 17:16 44.93622 19.59262 18956 ft 357 kts 281°
2026-04-26 17:17 44.93984 19.55781 19534 ft 360 kts 281°
2026-04-26 17:17 44.94347 19.52263 20121 ft 363 kts 281°
2026-04-26 17:17 44.94713 19.48718 20722 ft 366 kts 281°
2026-04-26 17:17 44.95081 19.45152 21308 ft 369 kts 281°
2026-04-26 17:18 44.95453 19.41552 21877 ft 372 kts 280°
2026-04-26 17:18 44.95827 19.37922 22436 ft 375 kts 280°
2026-04-26 17:18 44.96199 19.34265 22994 ft 378 kts 280°
2026-04-26 17:18 44.96570 19.30579 23567 ft 381 kts 280°
2026-04-26 17:19 44.97321 19.23156 24515 ft 386 kts 279°
2026-04-26 17:19 44.97701 19.19392 24977 ft 388 kts 279°
2026-04-26 17:19 44.98080 19.15604 25430 ft 391 kts 279°
2026-04-26 17:20 44.98459 19.11791 25880 ft 394 kts 279°
2026-04-26 17:20 44.98587 19.10498 26023 ft 394 kts 279°
2026-04-26 17:20 44.99222 19.04089 26767 ft 398 kts 279°
2026-04-26 17:20 44.99607 19.00203 27200 ft 401 kts 279°
2026-04-26 17:21 44.99995 18.96296 27625 ft 403 kts 279°
2026-04-26 17:21 45.00387 18.92354 28056 ft 405 kts 279°
2026-04-26 17:21 45.00776 18.88397 28487 ft 408 kts 278°
2026-04-26 17:21 45.01164 18.84415 28902 ft 411 kts 278°
2026-04-26 17:22 45.01553 18.80400 29326 ft 413 kts 278°
2026-04-26 17:22 45.01943 18.76359 29739 ft 416 kts 278°
2026-04-26 17:22 45.02336 18.72298 30138 ft 419 kts 278°
2026-04-26 17:22 45.02725 18.68259 30481 ft 421 kts 278°
2026-04-26 17:23 45.03124 18.64095 30821 ft 423 kts 278°
2026-04-26 17:23 45.03513 18.60013 31149 ft 425 kts 278°
2026-04-26 17:23 45.03909 18.55864 31463 ft 427 kts 278°
2026-04-26 17:23 45.04303 18.51684 31748 ft 430 kts 278°
2026-04-26 17:24 45.04697 18.47486 32076 ft 431 kts 278°
2026-04-26 17:24 45.05089 18.43309 32150 ft 424 kts 278°
2026-04-26 17:24 45.05468 18.39251 32160 ft 410 kts 278°
2026-04-26 17:24 45.05834 18.35313 32151 ft 398 kts 278°
2026-04-26 17:25 45.06544 18.27618 32155 ft 392 kts 278°
2026-04-26 17:25 45.07245 18.19977 32151 ft 391 kts 278°
2026-04-26 17:26 45.07945 18.12347 32151 ft 391 kts 277°
2026-04-26 17:26 45.08629 18.04768 32149 ft 391 kts 277°
2026-04-26 17:27 45.09318 17.97145 32147 ft 390 kts 277°
2026-04-26 17:27 45.09997 17.89526 32135 ft 390 kts 277°
2026-04-26 17:28 45.10436 17.81872 32133 ft 390 kts 273°
2026-04-26 17:28 45.10635 17.74195 32126 ft 390 kts 272°
2026-04-26 17:29 45.10790 17.67820 32128 ft 390 kts 273°
2026-04-26 17:29 45.11069 17.58848 32124 ft 390 kts 273°
2026-04-26 17:30 45.11337 17.51166 32124 ft 390 kts 273°
2026-04-26 17:30 45.11588 17.43552 32129 ft 390 kts 273°
2026-04-26 17:31 45.11833 17.35759 32139 ft 405 kts 273°
2026-04-26 17:31 45.12076 17.27693 32133 ft 412 kts 273°
2026-04-26 17:32 45.12312 17.19584 32133 ft 412 kts 273°
2026-04-26 17:32 45.12547 17.11470 32134 ft 412 kts 273°
2026-04-26 17:33 45.12773 17.03415 32132 ft 412 kts 273°
2026-04-26 17:34 45.13117 16.91275 32127 ft 411 kts 273°
2026-04-26 17:34 45.13333 16.83173 32124 ft 411 kts 273°
2026-04-26 17:35 45.13542 16.75087 32119 ft 411 kts 273°
2026-04-26 17:35 45.13743 16.66984 32109 ft 411 kts 273°
2026-04-26 17:36 45.13771 16.58893 31767 ft 413 kts 264°
2026-04-26 17:36 45.13393 16.54852 31515 ft 414 kts 264°
2026-04-26 17:36 45.13021 16.50810 31268 ft 413 kts 264°
2026-04-26 17:36 45.12653 16.46783 31013 ft 412 kts 264°
2026-04-26 17:37 45.12292 16.42818 30769 ft 411 kts 264°
2026-04-26 17:37 45.11925 16.38809 30524 ft 410 kts 264°
2026-04-26 17:37 45.11555 16.34815 30283 ft 409 kts 264°
2026-04-26 17:38 45.10806 16.26864 29475 ft 406 kts 263°
2026-04-26 17:38 45.10422 16.22857 28469 ft 414 kts 263°
2026-04-26 17:38 45.10036 16.18842 28013 ft 408 kts 263°
2026-04-26 17:38 45.09655 16.14888 27536 ft 403 kts 263°
2026-04-26 17:39 45.09281 16.10987 27066 ft 397 kts 263°
2026-04-26 17:39 45.08911 16.07136 26627 ft 393 kts 263°
2026-04-26 17:39 45.08545 16.03330 26191 ft 389 kts 263°
2026-04-26 17:39 45.08297 16.00778 25907 ft 387 kts 263°
2026-04-26 17:40 45.07811 15.95807 25347 ft 383 kts 263°
2026-04-26 17:40 45.07687 15.94548 25209 ft 382 kts 263°
2026-04-26 17:40 45.07205 15.89632 24665 ft 380 kts 263°
2026-04-26 17:40 45.06841 15.85936 24259 ft 378 kts 263°
2026-04-26 17:41 45.06478 15.82262 23846 ft 376 kts 263°
2026-04-26 17:41 45.06118 15.78607 23384 ft 373 kts 263°
2026-04-26 17:41 45.05761 15.74977 22950 ft 372 kts 263°
2026-04-26 17:41 45.05404 15.71366 22524 ft 370 kts 263°
2026-04-26 17:42 45.05044 15.67764 22088 ft 369 kts 263°
2026-04-26 17:42 45.04685 15.64181 21635 ft 367 kts 263°
2026-04-26 17:42 45.04328 15.60614 21190 ft 365 kts 263°
2026-04-26 17:42 45.03971 15.57073 20730 ft 363 kts 263°
2026-04-26 17:43 45.03613 15.53547 20283 ft 362 kts 263°
2026-04-26 17:43 45.03258 15.50025 19824 ft 360 kts 263°
2026-04-26 17:43 45.02908 15.46567 19361 ft 359 kts 263°
2026-04-26 17:43 45.02548 15.43039 18902 ft 357 kts 262°
2026-04-26 17:44 45.02197 15.39622 18454 ft 356 kts 262°
2026-04-26 17:44 45.01841 15.36173 17951 ft 354 kts 262°
2026-04-26 17:44 45.01485 15.32747 17493 ft 351 kts 262°
2026-04-26 17:44 45.01125 15.29301 17032 ft 349 kts 262°
2026-04-26 17:45 45.00774 15.25965 16596 ft 346 kts 262°
2026-04-26 17:45 45.00419 15.22570 16136 ft 344 kts 262°
2026-04-26 17:45 45.00075 15.19283 15693 ft 341 kts 262°
2026-04-26 17:45 44.99730 15.15980 15248 ft 339 kts 262°
2026-04-26 17:46 44.99388 15.12696 14798 ft 336 kts 262°
2026-04-26 17:46 44.99048 15.09439 14360 ft 334 kts 262°
2026-04-26 17:46 44.98710 15.06204 13921 ft 332 kts 262°
2026-04-26 17:46 44.98371 15.02996 13424 ft 329 kts 262°
2026-04-26 17:47 44.98032 14.99809 12941 ft 327 kts 262°
2026-04-26 17:47 44.97807 14.97701 12643 ft 325 kts 262°
2026-04-26 17:47 44.97357 14.93500 12083 ft 322 kts 262°
2026-04-26 17:47 44.97022 14.90383 11663 ft 320 kts 262°
2026-04-26 17:48 44.96689 14.87294 11249 ft 317 kts 262°
2026-04-26 17:48 44.96361 14.84224 10834 ft 316 kts 261°
2026-04-26 17:48 44.96034 14.81169 10412 ft 314 kts 261°
2026-04-26 17:48 44.95709 14.78146 10189 ft 305 kts 261°
2026-04-26 17:49 44.95400 14.75281 10050 ft 295 kts 261°
2026-04-26 17:49 44.95092 14.72455 9866 ft 289 kts 261°
2026-04-26 17:49 44.94778 14.69585 9353 ft 293 kts 261°
2026-04-26 17:49 44.94469 14.66767 9020 ft 289 kts 261°
2026-04-26 17:50 44.94166 14.63997 8562 ft 289 kts 261°
2026-04-26 17:50 44.93861 14.61204 8132 ft 287 kts 261°
2026-04-26 17:50 44.93558 14.58427 7648 ft 286 kts 261°
2026-04-26 17:50 44.93251 14.55653 7232 ft 286 kts 261°
2026-04-26 17:51 44.92946 14.52905 6972 ft 281 kts 261°
2026-04-26 17:51 44.92648 14.50209 6730 ft 276 kts 261°
2026-04-26 17:51 44.92353 14.47559 6489 ft 271 kts 261°
2026-04-26 17:51 44.92061 14.44950 6236 ft 267 kts 261°
2026-04-26 17:52 44.91775 14.42376 5983 ft 264 kts 261°
2026-04-26 17:52 44.91492 14.39838 5750 ft 260 kts 261°
2026-04-26 17:52 44.91214 14.37348 5553 ft 254 kts 261°
2026-04-26 17:52 44.90940 14.34909 5345 ft 249 kts 260°
2026-04-26 17:53 44.90672 14.32530 5177 ft 243 kts 260°
2026-04-26 17:53 44.90402 14.30225 4999 ft 233 kts 257°
2026-04-26 17:53 44.90124 14.28020 4830 ft 224 kts 263°
2026-04-26 17:54 44.89978 14.23809 4564 ft 206 kts 268°
2026-04-26 17:54 44.89942 14.21790 4272 ft 204 kts 268°
2026-04-26 17:54 44.89905 14.19822 3995 ft 198 kts 268°
2026-04-26 17:54 44.89869 14.17914 3725 ft 190 kts 268°
2026-04-26 17:55 44.89835 14.16111 3469 ft 183 kts 268°
2026-04-26 17:55 44.89801 14.14349 3223 ft 177 kts 268°
2026-04-26 17:55 44.89768 14.12623 2976 ft 175 kts 268°
2026-04-26 17:55 44.89734 14.10893 2729 ft 173 kts 268°
2026-04-26 17:56 44.89701 14.09231 2496 ft 172 kts 268°
2026-04-26 17:56 44.89636 14.05951 2025 ft 162 kts 269°
2026-04-26 17:57 44.89575 14.02915 1583 ft 147 kts 269°
2026-04-26 17:57 44.89546 14.01492 1380 ft 143 kts 269°
2026-04-26 17:57 44.89517 14.00096 1177 ft 142 kts 269°
2026-04-26 17:57 44.89489 13.98715 987 ft 140 kts 269°
2026-04-26 17:58 44.89403 13.94656 396 ft 136 kts 268°
2026-04-26 17:59 44.89356 13.92257 222 ft 86 kts 268°
2026-04-26 17:59 44.89341 13.91584 224 ft 65 kts 268°
2026-04-26 17:59 44.89328 13.90956 222 ft 48 kts 268°
2026-04-26 17:59 44.89319 13.90560 222 ft 37 kts 268°
2026-04-26 18:00 44.89342 13.90376 226 ft 10 kts 321°
2026-04-26 18:00 44.89404 13.90414 225 ft 12 kts 46°
2026-04-26 18:00 44.89475 13.90520 219 ft 18 kts 46°
2026-04-26 18:00 44.89539 13.90651 218 ft 15 kts 79°
2026-04-26 18:01 44.89546 13.90817 215 ft 19 kts 89°
2026-04-26 18:01 44.89550 13.91008 216 ft 20 kts 88°
2026-04-26 18:01 44.89554 13.91217 216 ft 23 kts 89°
2026-04-26 18:01 44.89560 13.91452 219 ft 25 kts 88°
2026-04-26 18:02 44.89564 13.91676 226 ft 23 kts 88°
2026-04-26 18:02 44.89567 13.91807 226 ft 18 kts 88°
2026-04-26 18:02 44.89587 13.91991 226 ft 12 kts 58°
2026-04-26 18:02 44.89623 13.92053 226 ft 6 kts 56°
2026-04-26 18:03 44.89632 13.92113 226 ft 7 kts 93°
2026-04-26 18:03 44.89653 13.92138 227 ft 5 kts
2026-04-26 18:03 44.89668 13.92149 226 ft 1 kts 45°
2026-04-26 18:03 44.89675 13.92160 228 ft 0 kts 46°